BAW7D EGLL-KLAX

Flight info

Callsign BAW7D
Flight time N/A
Altitude 36000
Route ULTIB T420 TNT UL28 RODOL UM65 TENSO L603 BELOX DCT APSOV DCT SUNOT/M083F370 NATB NIFTY/M083F380 DCT MIBNO/N0486F380 DCT TUNNI DCT 58N080W 54N090W DCT HML DCT KP09A/N0475F400 DCT DPR DCT KD75U DCT MLF DCT WINEN/N0455F390 Q73 EEVUN/N0460F400 Q73 HAKMN ANJLL4
Aircraft A388/J-SADE2E3FGHIJ3J4J5M1RWXY/LB1D1

Departure

Time N/A
Airport London Heathrow Airport (EGLL)

Arrival

Time 2026-05-08 00:23
Airport Los Angeles International Airport (KLAX)
Time Latitude Longitude Altitude Speed Heading
2026-05-07 21:41 47.40107 -98.94457 37905 ft 487 kts 224°
2026-05-07 21:41 47.34839 -99.00758 37910 ft 487 kts 224°
2026-05-07 21:42 47.29610 -99.06995 37901 ft 486 kts 224°
2026-05-07 21:42 47.24344 -99.13261 37900 ft 486 kts 224°
2026-05-07 21:43 47.19086 -99.19500 37903 ft 486 kts 224°
2026-05-07 21:43 47.13822 -99.25730 37899 ft 485 kts 224°
2026-05-07 21:44 47.08558 -99.31945 37903 ft 485 kts 224°
2026-05-07 21:44 47.04178 -99.37103 37902 ft 485 kts 224°
2026-05-07 21:45 46.98907 -99.43294 37898 ft 485 kts 224°
2026-05-07 21:45 46.93675 -99.49426 37896 ft 484 kts 224°
2026-05-07 21:46 46.88398 -99.55593 37897 ft 484 kts 224°
2026-05-07 21:46 46.83136 -99.61726 37899 ft 484 kts 224°
2026-05-07 21:47 46.77868 -99.67852 37903 ft 484 kts 224°
2026-05-07 21:47 46.72595 -99.73967 37902 ft 483 kts 224°
2026-05-07 21:48 46.67336 -99.80051 37906 ft 483 kts 224°
2026-05-07 21:48 46.62058 -99.86140 37901 ft 483 kts 224°
2026-05-07 21:49 46.56826 -99.92162 37901 ft 483 kts 224°
2026-05-07 21:49 46.51565 -99.98209 37903 ft 482 kts 224°
2026-05-07 21:50 46.46375 -100.04356 37909 ft 480 kts 226°
2026-05-07 21:50 46.41342 -100.10720 37900 ft 479 kts 226°
2026-05-07 21:51 46.36294 -100.17045 37897 ft 480 kts 226°
2026-05-07 21:51 46.31251 -100.23302 37963 ft 482 kts 226°
2026-05-07 21:52 46.28678 -100.26485 38394 ft 482 kts 226°
2026-05-07 21:52 46.26128 -100.29631 38788 ft 482 kts 226°
2026-05-07 21:52 46.23579 -100.32775 39115 ft 482 kts 225°
2026-05-07 21:52 46.21024 -100.35921 39437 ft 482 kts 225°
2026-05-07 21:53 46.18468 -100.39065 39742 ft 483 kts 225°
2026-05-07 21:53 46.15928 -100.42188 39879 ft 488 kts 225°
2026-05-07 21:53 46.10809 -100.48460 39889 ft 480 kts 225°
2026-05-07 21:54 46.05702 -100.54709 39888 ft 481 kts 225°
2026-05-07 21:54 46.00594 -100.60942 39887 ft 482 kts 225°
2026-05-07 21:55 45.95476 -100.67171 39891 ft 481 kts 225°
2026-05-07 21:55 45.90391 -100.73343 39886 ft 481 kts 225°
2026-05-07 21:56 45.85285 -100.79527 39884 ft 480 kts 225°
2026-05-07 21:56 45.80177 -100.85697 39880 ft 479 kts 225°
2026-05-07 21:57 45.75062 -100.91861 39877 ft 479 kts 225°
2026-05-07 21:57 45.69965 -100.97988 39873 ft 479 kts 225°
2026-05-07 21:58 45.64856 -101.04115 39875 ft 479 kts 225°
2026-05-07 21:58 45.59745 -101.10228 39886 ft 479 kts 225°
2026-05-07 21:59 45.54651 -101.16306 39884 ft 480 kts 225°
2026-05-07 21:59 45.49513 -101.22421 39895 ft 481 kts 225°
2026-05-07 22:00 45.44360 -101.28540 39894 ft 482 kts 225°
2026-05-07 22:00 45.39205 -101.34646 39901 ft 482 kts 225°
2026-05-07 22:01 45.34071 -101.40711 39909 ft 483 kts 225°
2026-05-07 22:01 45.28898 -101.46808 39907 ft 483 kts 224°
2026-05-07 22:02 45.26276 -101.49892 40116 ft 483 kts 224°
2026-05-07 22:02 45.23713 -101.52906 39856 ft 485 kts 224°
2026-05-07 22:02 45.18527 -101.58986 39911 ft 483 kts 224°
2026-05-07 22:03 45.13334 -101.65062 39921 ft 484 kts 224°
2026-05-07 22:03 45.08265 -101.71283 39908 ft 480 kts 230°
2026-05-07 22:04 45.03927 -101.78381 39919 ft 475 kts 237°
2026-05-07 22:04 44.99843 -101.85728 39922 ft 475 kts 236°
2026-05-07 22:05 44.95769 -101.93000 39920 ft 475 kts 236°
2026-05-07 22:05 44.91660 -102.00311 39912 ft 475 kts 236°
2026-05-07 22:06 44.87535 -102.07624 39912 ft 475 kts 236°
2026-05-07 22:06 44.83429 -102.14882 39912 ft 476 kts 236°
2026-05-07 22:07 44.79296 -102.22168 39907 ft 476 kts 236°
2026-05-07 22:07 44.75159 -102.29442 39904 ft 476 kts 236°
2026-05-07 22:08 44.71008 -102.36724 39909 ft 476 kts 236°
2026-05-07 22:08 44.66863 -102.43976 39909 ft 476 kts 236°
2026-05-07 22:09 44.62710 -102.51223 39907 ft 476 kts 236°
2026-05-07 22:09 44.58554 -102.58458 39906 ft 476 kts 236°
2026-05-07 22:10 44.54428 -102.65622 39907 ft 476 kts 236°
2026-05-07 22:10 44.50252 -102.72856 39904 ft 476 kts 236°
2026-05-07 22:11 44.46076 -102.80071 39900 ft 476 kts 236°
2026-05-07 22:11 44.41895 -102.87275 39897 ft 477 kts 236°
2026-05-07 22:12 44.37734 -102.94428 39888 ft 477 kts 236°
2026-05-07 22:12 44.33537 -103.01625 39883 ft 477 kts 236°
2026-05-07 22:13 44.29329 -103.08822 39881 ft 478 kts 236°
2026-05-07 22:13 44.25119 -103.16006 39877 ft 478 kts 236°
2026-05-07 22:14 44.20900 -103.23187 39877 ft 479 kts 236°
2026-05-07 22:14 44.16670 -103.30366 39880 ft 479 kts 236°
2026-05-07 22:15 44.12434 -103.37541 39885 ft 480 kts 236°
2026-05-07 22:15 44.08186 -103.44717 39888 ft 480 kts 236°
2026-05-07 22:16 44.03929 -103.51891 39915 ft 481 kts 236°
2026-05-07 22:16 43.99697 -103.59001 39929 ft 481 kts 236°
2026-05-07 22:17 43.95428 -103.66159 39934 ft 481 kts 236°
2026-05-07 22:17 43.91163 -103.73294 39937 ft 481 kts 236°
2026-05-07 22:18 43.84736 -103.84009 39936 ft 482 kts 236°
2026-05-07 22:19 43.80435 -103.91158 39930 ft 482 kts 236°
2026-05-07 22:19 43.76138 -103.98282 39910 ft 482 kts 236°
2026-05-07 22:20 43.71830 -104.05408 39904 ft 483 kts 236°
2026-05-07 22:20 43.67538 -104.12490 39904 ft 483 kts 236°
2026-05-07 22:21 43.63211 -104.19610 39903 ft 484 kts 235°
2026-05-07 22:21 43.58870 -104.26738 39913 ft 484 kts 235°
2026-05-07 22:22 43.54522 -104.33857 39892 ft 485 kts 235°
2026-05-07 22:22 43.50179 -104.40954 39894 ft 485 kts 235°
2026-05-07 22:23 43.45818 -104.48060 39897 ft 485 kts 235°
2026-05-07 22:23 43.41459 -104.55148 39904 ft 485 kts 235°
2026-05-07 22:24 43.37117 -104.62190 39902 ft 485 kts 235°
2026-05-07 22:24 43.32748 -104.69258 39904 ft 485 kts 235°
2026-05-07 22:25 43.28368 -104.76327 39908 ft 485 kts 235°
2026-05-07 22:25 43.23998 -104.83363 39906 ft 485 kts 235°
2026-05-07 22:26 43.19600 -104.90426 39905 ft 486 kts 235°
2026-05-07 22:26 43.15221 -104.97439 39939 ft 480 kts 235°
2026-05-07 22:27 43.10964 -105.04235 39912 ft 468 kts 235°
2026-05-07 22:27 43.06722 -105.11009 39913 ft 470 kts 235°
2026-05-07 22:28 43.02460 -105.17795 39919 ft 470 kts 235°
2026-05-07 22:28 42.98191 -105.24569 39927 ft 470 kts 235°
2026-05-07 22:29 42.93928 -105.31321 39930 ft 470 kts 235°
2026-05-07 22:29 42.90369 -105.36944 39936 ft 470 kts 235°
2026-05-07 22:30 42.86087 -105.43696 39940 ft 470 kts 235°
2026-05-07 22:30 42.81115 -105.51517 39939 ft 470 kts 235°
2026-05-07 22:31 42.76835 -105.58233 39928 ft 469 kts 235°
2026-05-07 22:31 42.73247 -105.63851 39920 ft 469 kts 235°
2026-05-07 22:32 42.68986 -105.70508 39913 ft 469 kts 235°
2026-05-07 22:32 42.64696 -105.77195 39904 ft 469 kts 235°
2026-05-07 22:33 42.60402 -105.83874 39903 ft 469 kts 235°
2026-05-07 22:33 42.56110 -105.90545 39901 ft 469 kts 235°
2026-05-07 22:34 42.51816 -105.97203 39906 ft 469 kts 234°
2026-05-07 22:34 42.47644 -106.03974 39894 ft 464 kts 240°
2026-05-07 22:35 42.43992 -106.11148 39891 ft 462 kts 241°
2026-05-07 22:35 42.40337 -106.18257 39890 ft 463 kts 240°
2026-05-07 22:36 42.36607 -106.25349 39885 ft 463 kts 240°
2026-05-07 22:36 42.32857 -106.32427 39882 ft 463 kts 240°
2026-05-07 22:37 42.29104 -106.39496 39884 ft 463 kts 240°
2026-05-07 22:37 42.25344 -106.46557 39887 ft 463 kts 240°
2026-05-07 22:38 42.21579 -106.53607 39890 ft 463 kts 240°
2026-05-07 22:38 42.17828 -106.60610 39895 ft 463 kts 240°
2026-05-07 22:39 42.14054 -106.67643 39900 ft 463 kts 240°
2026-05-07 22:39 42.10272 -106.74674 39906 ft 463 kts 240°
2026-05-07 22:40 42.06485 -106.81697 39909 ft 463 kts 240°
2026-05-07 22:40 42.02698 -106.88704 39926 ft 463 kts 240°
2026-05-07 22:41 41.98925 -106.95668 39959 ft 463 kts 240°
2026-05-07 22:41 41.95124 -107.02667 39992 ft 463 kts 240°
2026-05-07 22:42 41.91325 -107.09649 40022 ft 462 kts 240°
2026-05-07 22:42 41.87520 -107.16626 40034 ft 462 kts 240°
2026-05-07 22:43 41.83719 -107.23578 40045 ft 462 kts 240°
2026-05-07 22:43 41.79910 -107.30529 40051 ft 462 kts 240°
2026-05-07 22:44 41.76125 -107.37419 40021 ft 462 kts 240°
2026-05-07 22:44 41.72319 -107.44335 39995 ft 462 kts 240°
2026-05-07 22:45 41.68469 -107.51313 39972 ft 462 kts 240°
2026-05-07 22:45 41.64667 -107.58188 39943 ft 463 kts 240°
2026-05-07 22:46 41.60837 -107.65097 39928 ft 462 kts 240°
2026-05-07 22:46 41.57007 -107.71992 39923 ft 463 kts 240°
2026-05-07 22:47 41.53161 -107.78900 39922 ft 463 kts 240°
2026-05-07 22:47 41.49323 -107.85779 39918 ft 463 kts 240°
2026-05-07 22:48 41.45474 -107.92660 39915 ft 463 kts 240°
2026-05-07 22:48 41.41644 -107.99493 39912 ft 463 kts 240°
2026-05-07 22:49 41.37775 -108.06381 39917 ft 464 kts 240°
2026-05-07 22:49 41.33896 -108.13270 39919 ft 465 kts 240°
2026-05-07 22:50 41.30010 -108.20154 39925 ft 465 kts 240°
2026-05-07 22:50 41.26112 -108.27046 39929 ft 465 kts 240°
2026-05-07 22:51 41.22214 -108.33921 39941 ft 466 kts 240°
2026-05-07 22:51 41.18337 -108.40746 39943 ft 466 kts 240°
2026-05-07 22:52 41.14419 -108.47627 39959 ft 466 kts 240°
2026-05-07 22:52 41.10504 -108.54488 39951 ft 466 kts 240°
2026-05-07 22:53 41.06584 -108.61341 39945 ft 467 kts 240°
2026-05-07 22:53 41.02655 -108.68194 39948 ft 467 kts 240°
2026-05-07 22:54 40.98746 -108.74999 39948 ft 467 kts 240°
2026-05-07 22:54 40.94810 -108.81835 39956 ft 467 kts 240°
2026-05-07 22:55 40.90864 -108.88673 39967 ft 467 kts 240°
2026-05-07 22:55 40.86920 -108.95494 39970 ft 468 kts 240°
2026-05-07 22:56 40.82955 -109.02333 39976 ft 469 kts 240°
2026-05-07 22:56 40.78976 -109.09183 39985 ft 469 kts 240°
2026-05-07 22:57 40.74995 -109.16019 39992 ft 469 kts 240°
2026-05-07 22:57 40.71010 -109.22845 39999 ft 470 kts 239°
2026-05-07 22:58 40.67034 -109.29649 40016 ft 472 kts 239°
2026-05-07 22:58 40.63018 -109.36503 40049 ft 473 kts 239°
2026-05-07 22:59 40.58989 -109.43364 40054 ft 474 kts 239°
2026-05-07 22:59 40.54945 -109.50233 40062 ft 474 kts 239°
2026-05-07 23:00 40.50901 -109.57088 40061 ft 474 kts 239°
2026-05-07 23:00 40.46879 -109.63889 40055 ft 474 kts 239°
2026-05-07 23:01 40.42829 -109.70724 40042 ft 474 kts 239°
2026-05-07 23:01 40.38784 -109.77536 40026 ft 473 kts 239°
2026-05-07 23:02 40.34733 -109.84343 39984 ft 474 kts 239°
2026-05-07 23:02 40.30675 -109.91145 40005 ft 474 kts 239°
2026-05-07 23:03 40.26604 -109.97957 39999 ft 475 kts 239°
2026-05-07 23:03 40.22526 -110.04764 39993 ft 475 kts 239°
2026-05-07 23:04 40.18441 -110.11566 39993 ft 476 kts 238°
2026-05-07 23:04 40.14370 -110.18332 40001 ft 476 kts 238°
2026-05-07 23:05 40.10268 -110.25135 40010 ft 477 kts 238°
2026-05-07 23:05 40.06150 -110.31950 40014 ft 477 kts 238°
2026-05-07 23:06 40.02030 -110.38752 40032 ft 478 kts 238°
2026-05-07 23:06 39.97892 -110.45569 40040 ft 479 kts 238°
2026-05-07 23:07 39.93767 -110.52353 40059 ft 480 kts 238°
2026-05-07 23:07 39.89617 -110.59163 40078 ft 480 kts 237°
2026-05-07 23:08 39.85453 -110.65976 40084 ft 481 kts 237°
2026-05-07 23:08 39.81281 -110.72790 40090 ft 481 kts 237°
2026-05-07 23:09 39.77102 -110.79601 40095 ft 481 kts 237°
2026-05-07 23:09 39.72902 -110.86424 40097 ft 482 kts 237°
2026-05-07 23:10 39.68745 -110.93172 40091 ft 481 kts 237°
2026-05-07 23:10 39.64561 -110.99950 40080 ft 481 kts 237°
2026-05-07 23:11 39.60372 -111.06719 40066 ft 480 kts 237°
2026-05-07 23:11 39.56184 -111.13472 40056 ft 480 kts 237°
2026-05-07 23:12 39.51988 -111.20225 40051 ft 480 kts 237°
2026-05-07 23:12 39.47816 -111.26926 40062 ft 481 kts 236°
2026-05-07 23:13 39.43600 -111.33675 40061 ft 482 kts 236°
2026-05-07 23:13 39.39377 -111.40425 40073 ft 484 kts 236°
2026-05-07 23:14 39.35138 -111.47187 40076 ft 485 kts 236°
2026-05-07 23:14 39.30883 -111.53962 40076 ft 485 kts 236°
2026-05-07 23:15 39.26619 -111.60737 40072 ft 486 kts 236°
2026-05-07 23:15 39.22346 -111.67509 40061 ft 486 kts 236°
2026-05-07 23:16 39.18097 -111.74230 40051 ft 486 kts 236°
2026-05-07 23:16 39.13823 -111.80974 40012 ft 486 kts 235°
2026-05-07 23:17 39.09547 -111.87710 40008 ft 486 kts 235°
2026-05-07 23:17 39.05263 -111.94441 40007 ft 486 kts 235°
2026-05-07 23:18 39.00975 -112.01165 40008 ft 486 kts 235°
2026-05-07 23:18 38.96685 -112.07879 40026 ft 486 kts 235°
2026-05-07 23:19 38.92386 -112.14593 40036 ft 486 kts 235°
2026-05-07 23:19 38.88072 -112.21313 40050 ft 488 kts 235°
2026-05-07 23:20 38.84482 -112.26902 40053 ft 488 kts 234°
2026-05-07 23:20 38.80144 -112.33635 40047 ft 488 kts 234°
2026-05-07 23:21 38.75840 -112.40301 40029 ft 488 kts 234°
2026-05-07 23:21 38.71502 -112.47009 40010 ft 489 kts 234°
2026-05-07 23:22 38.67160 -112.53708 39990 ft 489 kts 234°
2026-05-07 23:22 38.62805 -112.60411 39966 ft 489 kts 234°
2026-05-07 23:23 38.58460 -112.67086 39978 ft 489 kts 234°
2026-05-07 23:23 38.54101 -112.73769 39993 ft 489 kts 234°
2026-05-07 23:24 38.49744 -112.80442 40017 ft 489 kts 234°
2026-05-07 23:24 38.45378 -112.87118 40037 ft 489 kts 234°
2026-05-07 23:25 38.41030 -112.93752 40046 ft 489 kts 233°
2026-05-07 23:25 38.36580 -113.00338 40042 ft 491 kts 230°
2026-05-07 23:26 38.31646 -113.06401 40029 ft 494 kts 224°
2026-05-07 23:26 38.26514 -113.12223 39992 ft 494 kts 225°
2026-05-07 23:27 38.18886 -113.20960 39959 ft 494 kts 225°
2026-05-07 23:27 38.13775 -113.26792 39917 ft 495 kts 225°
2026-05-07 23:28 38.08644 -113.32633 39907 ft 495 kts 225°
2026-05-07 23:28 38.03515 -113.38459 39904 ft 495 kts 224°
2026-05-07 23:29 37.98367 -113.44270 39905 ft 496 kts 222°
2026-05-07 23:29 37.92538 -113.49004 39900 ft 501 kts 207°
2026-05-07 23:30 37.85954 -113.51810 39904 ft 504 kts 192°
2026-05-07 23:30 37.79047 -113.53439 39905 ft 505 kts 192°
2026-05-07 23:31 37.72143 -113.55110 39911 ft 505 kts 192°
2026-05-07 23:31 37.65268 -113.56768 39915 ft 505 kts 192°
2026-05-07 23:32 37.58340 -113.58433 39918 ft 506 kts 192°
2026-05-07 23:32 37.51427 -113.60090 39921 ft 505 kts 192°
2026-05-07 23:33 37.44506 -113.61745 39919 ft 505 kts 192°
2026-05-07 23:33 37.37628 -113.63386 39907 ft 505 kts 192°
2026-05-07 23:34 37.30716 -113.65034 39915 ft 506 kts 192°
2026-05-07 23:34 37.23804 -113.66677 39917 ft 505 kts 191°
2026-05-07 23:35 37.16884 -113.68319 39931 ft 505 kts 191°
2026-05-07 23:35 37.10019 -113.69947 39940 ft 505 kts 191°
2026-05-07 23:36 37.03187 -113.71998 39942 ft 504 kts 199°
2026-05-07 23:36 36.96634 -113.75123 39929 ft 503 kts 202°
2026-05-07 23:37 36.90110 -113.78307 39918 ft 504 kts 202°
2026-05-07 23:37 36.83568 -113.81474 39903 ft 504 kts 202°
2026-05-07 23:38 36.77027 -113.84632 39888 ft 504 kts 202°
2026-05-07 23:38 36.70491 -113.87781 39889 ft 503 kts 202°
2026-05-07 23:39 36.63952 -113.90944 39887 ft 503 kts 203°
2026-05-07 23:39 36.57591 -113.94472 39882 ft 503 kts 205°
2026-05-07 23:40 36.51208 -113.98072 39876 ft 503 kts 205°
2026-05-07 23:40 36.44811 -114.01613 39867 ft 503 kts 205°
2026-05-07 23:41 36.38580 -114.05539 39860 ft 502 kts 213°
2026-05-07 23:41 36.32654 -114.10133 39850 ft 502 kts 213°
2026-05-07 23:42 36.26755 -114.14669 39849 ft 502 kts 213°
2026-05-07 23:42 36.20813 -114.19218 39850 ft 502 kts 213°
2026-05-07 23:43 36.14870 -114.23760 39849 ft 502 kts 212°
2026-05-07 23:43 36.09138 -114.28684 39852 ft 501 kts 221°
2026-05-07 23:44 36.04131 -114.34632 39848 ft 499 kts 230°
2026-05-07 23:44 35.99574 -114.41020 39854 ft 498 kts 230°
2026-05-07 23:45 35.94961 -114.47410 39864 ft 498 kts 230°
2026-05-07 23:45 35.90339 -114.53787 39870 ft 498 kts 230°
2026-05-07 23:46 35.85717 -114.60155 39881 ft 498 kts 230°
2026-05-07 23:46 35.81081 -114.66530 39896 ft 499 kts 229°
2026-05-07 23:47 35.76441 -114.72898 39914 ft 499 kts 229°
2026-05-07 23:47 35.71831 -114.79213 39925 ft 499 kts 229°
2026-05-07 23:48 35.67186 -114.85564 39927 ft 499 kts 229°
2026-05-07 23:48 35.62550 -114.91905 39933 ft 498 kts 229°
2026-05-07 23:49 35.57907 -114.98254 39934 ft 498 kts 229°
2026-05-07 23:49 35.53270 -115.04583 39936 ft 498 kts 229°
2026-05-07 23:50 35.48610 -115.10886 39935 ft 498 kts 228°
2026-05-07 23:50 35.43845 -115.17081 39937 ft 498 kts 228°
2026-05-07 23:51 35.39111 -115.23227 39933 ft 498 kts 228°
2026-05-07 23:51 35.34355 -115.29416 39933 ft 498 kts 228°
2026-05-07 23:52 35.29605 -115.35591 39930 ft 499 kts 228°
2026-05-07 23:52 35.24839 -115.41777 39928 ft 499 kts 228°
2026-05-07 23:53 35.20068 -115.47956 39919 ft 499 kts 228°
2026-05-07 23:53 35.15295 -115.54128 39910 ft 499 kts 228°
2026-05-07 23:54 35.10556 -115.60240 39900 ft 499 kts 227°
2026-05-07 23:54 35.05757 -115.66374 39889 ft 499 kts 227°
2026-05-07 23:55 35.00961 -115.72493 39876 ft 498 kts 227°
2026-05-07 23:55 34.96159 -115.78614 39871 ft 498 kts 227°
2026-05-07 23:56 34.91392 -115.84679 39863 ft 498 kts 227°
2026-05-07 23:56 34.86594 -115.90774 39838 ft 499 kts 227°
2026-05-07 23:57 34.84193 -115.93819 39634 ft 494 kts 227°
2026-05-07 23:57 34.81818 -115.96828 39389 ft 492 kts 227°
2026-05-07 23:57 34.79461 -115.99813 39064 ft 493 kts 227°
2026-05-07 23:57 34.77073 -116.02834 38379 ft 496 kts 227°
2026-05-07 23:58 34.74669 -116.05889 37303 ft 504 kts 227°
2026-05-07 23:58 34.72249 -116.08976 36489 ft 505 kts 227°
2026-05-07 23:58 34.69827 -116.12065 35976 ft 501 kts 227°
2026-05-07 23:58 34.67424 -116.15124 35351 ft 499 kts 227°
2026-05-07 23:59 34.65017 -116.18186 34352 ft 505 kts 227°
2026-05-07 23:59 34.62569 -116.21296 33478 ft 509 kts 227°
2026-05-07 23:59 34.60137 -116.24381 32861 ft 504 kts 227°
2026-05-07 23:59 34.57720 -116.27443 32533 ft 495 kts 227°
2026-05-08 00:00 34.55362 -116.30428 32177 ft 487 kts 227°
2026-05-08 00:00 34.53047 -116.33356 31565 ft 486 kts 227°
2026-05-08 00:00 34.50714 -116.36306 30984 ft 483 kts 227°
2026-05-08 00:00 34.48394 -116.39237 30386 ft 481 kts 227°
2026-05-08 00:01 34.46086 -116.42150 29755 ft 478 kts 227°
2026-05-08 00:01 34.43793 -116.45060 29149 ft 474 kts 229°
2026-05-08 00:01 34.41758 -116.48164 28557 ft 468 kts 237°
2026-05-08 00:01 34.40082 -116.51521 27962 ft 463 kts 244°
2026-05-08 00:02 34.38675 -116.54994 27381 ft 458 kts 246°
2026-05-08 00:02 34.37269 -116.58443 26798 ft 455 kts 245°
2026-05-08 00:02 34.35863 -116.61857 26211 ft 452 kts 245°
2026-05-08 00:02 34.34461 -116.65248 25703 ft 447 kts 245°
2026-05-08 00:03 34.33087 -116.68567 25534 ft 435 kts 245°
2026-05-08 00:03 34.31759 -116.71831 24965 ft 433 kts 246°
2026-05-08 00:03 34.30449 -116.75107 24206 ft 432 kts 246°
2026-05-08 00:03 34.29165 -116.78317 23766 ft 423 kts 246°
2026-05-08 00:04 34.27894 -116.81487 23240 ft 416 kts 246°
2026-05-08 00:04 34.26635 -116.84616 22717 ft 407 kts 246°
2026-05-08 00:04 34.25406 -116.87665 22247 ft 401 kts 246°
2026-05-08 00:04 34.24181 -116.90698 21720 ft 400 kts 246°
2026-05-08 00:05 34.22963 -116.93715 21212 ft 399 kts 246°
2026-05-08 00:05 34.21747 -116.96724 20709 ft 398 kts 246°
2026-05-08 00:05 34.20691 -116.99745 20217 ft 394 kts 253°
2026-05-08 00:05 34.19861 -117.02891 19709 ft 393 kts 254°
2026-05-08 00:06 34.19022 -117.06037 19199 ft 392 kts 254°
2026-05-08 00:06 34.18182 -117.09156 18708 ft 390 kts 254°
2026-05-08 00:06 34.17341 -117.12260 18188 ft 389 kts 254°
2026-05-08 00:06 34.16500 -117.15357 17660 ft 386 kts 254°
2026-05-08 00:07 34.15661 -117.18423 17148 ft 383 kts 253°
2026-05-08 00:07 34.14822 -117.21460 16662 ft 379 kts 253°
2026-05-08 00:07 34.13992 -117.24467 16162 ft 376 kts 253°
2026-05-08 00:07 34.13177 -117.27424 15690 ft 373 kts 253°
2026-05-08 00:08 34.12362 -117.30381 15207 ft 370 kts 253°
2026-05-08 00:08 34.11815 -117.32363 14887 ft 368 kts 253°
2026-05-08 00:08 34.11011 -117.35276 14404 ft 365 kts 253°
2026-05-08 00:08 34.10222 -117.38133 14067 ft 360 kts 253°
2026-05-08 00:09 34.09240 -117.41989 13322 ft 359 kts 255°
2026-05-08 00:09 34.08774 -117.43901 12946 ft 358 kts 255°
2026-05-08 00:09 34.08074 -117.46762 12524 ft 352 kts 255°
2026-05-08 00:09 34.07383 -117.49533 12360 ft 340 kts 253°
2026-05-08 00:10 34.06506 -117.52154 11940 ft 337 kts 248°
2026-05-08 00:10 34.05561 -117.54745 11559 ft 334 kts 248°
2026-05-08 00:10 34.04636 -117.57300 11159 ft 330 kts 249°
2026-05-08 00:10 34.03724 -117.59830 10757 ft 328 kts 249°
2026-05-08 00:11 34.02819 -117.62341 10350 ft 325 kts 249°
2026-05-08 00:11 34.01923 -117.64830 10081 ft 321 kts 249°
2026-05-08 00:11 34.01065 -117.67266 9983 ft 319 kts 252°
2026-05-08 00:11 34.00512 -117.69815 9881 ft 309 kts 264°
2026-05-08 00:12 34.00287 -117.72331 9717 ft 294 kts 267°
2026-05-08 00:12 34.00067 -117.74760 9230 ft 289 kts 266°
2026-05-08 00:12 33.99836 -117.77148 8887 ft 288 kts 265°
2026-05-08 00:12 33.99601 -117.79523 8461 ft 284 kts 265°
2026-05-08 00:13 33.99368 -117.81866 8126 ft 278 kts 265°
2026-05-08 00:13 33.99139 -117.84176 7761 ft 279 kts 265°
2026-05-08 00:14 33.99058 -117.85006 7659 ft 278 kts 265°
2026-05-08 00:14 33.98837 -117.87259 7226 ft 275 kts 265°
2026-05-08 00:14 33.98617 -117.89532 7069 ft 270 kts 264°
2026-05-08 00:14 33.98400 -117.91756 6965 ft 262 kts 264°
2026-05-08 00:15 33.98190 -117.93884 6814 ft 249 kts 264°
2026-05-08 00:15 33.97989 -117.95894 6703 ft 233 kts 264°
2026-05-08 00:15 33.97801 -117.97769 6573 ft 218 kts 264°
2026-05-08 00:15 33.97627 -117.99557 6272 ft 213 kts 264°
2026-05-08 00:16 33.97453 -118.01332 5864 ft 214 kts 264°
2026-05-08 00:16 33.97278 -118.03103 5516 ft 211 kts 264°
2026-05-08 00:16 33.97105 -118.04847 5165 ft 209 kts 264°
2026-05-08 00:16 33.96933 -118.06580 5017 ft 208 kts 264°
2026-05-08 00:17 33.96762 -118.08292 4968 ft 210 kts 264°
2026-05-08 00:17 33.96608 -118.10044 4834 ft 209 kts 269°
2026-05-08 00:17 33.96587 -118.11782 4655 ft 206 kts 270°
2026-05-08 00:17 33.96581 -118.13454 4542 ft 191 kts 270°
2026-05-08 00:18 33.96575 -118.15007 4027 ft 183 kts 270°
2026-05-08 00:18 33.96568 -118.16544 3524 ft 183 kts 271°
2026-05-08 00:18 33.96560 -118.18073 3194 ft 183 kts 270°
2026-05-08 00:18 33.96552 -118.19599 2858 ft 181 kts 270°
2026-05-08 00:19 33.96544 -118.21116 2507 ft 181 kts 270°
2026-05-08 00:19 33.96535 -118.22642 2167 ft 181 kts 269°
2026-05-08 00:19 33.96524 -118.24161 2005 ft 180 kts 269°
2026-05-08 00:19 33.96549 -118.25656 2002 ft 179 kts 271°
2026-05-08 00:20 33.96523 -118.27158 2002 ft 180 kts 265°
2026-05-08 00:20 33.96394 -118.28634 2000 ft 179 kts 262°
2026-05-08 00:20 33.96238 -118.30109 1810 ft 172 kts 263°
2026-05-08 00:20 33.96105 -118.31427 1579 ft 147 kts 262°
2026-05-08 00:21 33.95983 -118.32608 1383 ft 137 kts 262°
2026-05-08 00:21 33.95868 -118.33742 1211 ft 135 kts 262°
2026-05-08 00:21 33.95754 -118.34871 1037 ft 134 kts 262°
2026-05-08 00:21 33.95639 -118.35972 851 ft 129 kts 262°
2026-05-08 00:22 33.95532 -118.37052 680 ft 132 kts 261°
2026-05-08 00:22 33.95423 -118.38149 514 ft 132 kts 262°
2026-05-08 00:22 33.95310 -118.39236 353 ft 130 kts 261°
2026-05-08 00:22 33.95201 -118.40319 159 ft 131 kts 259°
2026-05-08 00:23 33.95097 -118.41289 127 ft 96 kts 263°
2026-05-08 00:23 33.95041 -118.41848 130 ft 44 kts 263°
2026-05-08 00:23 33.95009 -118.42161 129 ft 33 kts 263°
2026-05-08 00:23 33.94977 -118.42399 127 ft 26 kts 255°
2026-05-08 00:24 33.94901 -118.42609 127 ft 28 kts 234°
2026-05-08 00:24 33.94782 -118.42748 127 ft 8 kts 202°
2026-05-08 00:24 33.94734 -118.42770 127 ft 14 kts 201°
2026-05-08 00:24 33.94664 -118.42756 125 ft 10 kts 131°
2026-05-08 00:25 33.94641 -118.42669 129 ft 12 kts 86°
2026-05-08 00:25 33.94647 -118.42599 128 ft 10 kts 84°
2026-05-08 00:25 33.94656 -118.42491 129 ft 16 kts 84°
2026-05-08 00:25 33.94670 -118.42339 129 ft 20 kts 83°
2026-05-08 00:26 33.94686 -118.42187 127 ft 0 kts 82°
2026-05-08 00:26 33.94688 -118.42163 126 ft 6 kts 82°
2026-05-08 00:26 33.94697 -118.42088 130 ft 12 kts 82°
2026-05-08 00:26 33.94710 -118.41967 131 ft 17 kts 82°
2026-05-08 00:27 33.94728 -118.41800 127 ft 22 kts 82°
2026-05-08 00:27 33.94747 -118.41614 125 ft 18 kts 83°
2026-05-08 00:27 33.94761 -118.41459 125 ft 18 kts 92°
2026-05-08 00:27 33.94709 -118.41384 127 ft 7 kts 130°
2026-05-08 00:28 33.94686 -118.41320 126 ft 10 kts 124°
2026-05-08 00:28 33.94627 -118.41279 128 ft 11 kts 171°
2026-05-08 00:28 33.94569 -118.41267 128 ft 0 kts 170°
2026-05-08 00:28 33.94550 -118.41262 128 ft 2 kts 151°
2026-05-08 00:29 33.94542 -118.41251 128 ft 3 kts 106°
2026-05-08 00:29 33.94531 -118.41202 129 ft 8 kts 105°
2026-05-08 00:29 33.94523 -118.41162 128 ft 0 kts 98°